Tracking 30289 objects as of 29-Apr-2025
HD Live streaming from Space Station
objects crossing your sky now

TEMPSAT 1

Track TEMPSAT 1 now!
10-day predictions
TEMPSAT 1 is classified as:


NORAD ID: 1512
Int'l Code: 1965-065E
Perigee: 1,089.0 km
Apogee: 1,192.0 km
Inclination: 90.0 °
Period: 108.0 minutes
Semi major axis: 7511 km
RCS: 0.0695 m2 (small)
Launch date: August 13, 1965
Source: United States (US)
Launch site: AIR FORCE WESTERN TEST RANGE (AFWTR)
Your satellite tracking list
Your tracking list is empty




NASA's NSSDC Master Catalog

Two Line Element Set (TLE):
1 01512U 65065E   25118.51238984  .00000063  00000-0  10962-3 0  9998
2 01512  89.9784 213.0368 0068574 334.5904  46.0470 13.33562483904784
Source of the keplerian elements: AFSPC